{"data":{"norad_id":55583,"epoch":"2026-05-25T02:32:27.588768Z","epoch_age_seconds":56008,"freshness":"FRESH","line1":"1 55583U 23020Q   26145.10587487 -.00000016  00000+0  89593-5 0  9997","line2":"2 55583  42.9961 293.3000 0001883 290.0659  69.9990 15.27586789180602","mean_motion":15.27586789,"eccentricity":0.0001883,"inclination_deg":42.9961,"raan_deg":293.3,"arg_perigee_deg":290.0659,"mean_anomaly_deg":69.999,"bstar":8.9593e-6,"rev_number":18060,"period_min":94.266329767271,"perigee_km":481.73680989261,"apogee_km":484.32072492061,"semimajor_km":6861.1657674066,"source":"CELESTRAK","updated_at":"2026-05-25T13:38:17.837172Z"}}